GW0100 Weather Reports


time (UTC)temp
C
wind
direction
speed
KPH
gust
KPH
rain 1hr
cm
rain 24hr
cm
rain mn
cm
humidity
%
barometer
mb
20260906150433 31 225 3.2 9.7 0.00 0.00 0.00 90 1015.8
20260906145932 30 243 3.2 6.4 0.00 0.00 0.00 92 1015.8
20260906145432 30 345 3.2 9.7 0.00 0.00 0.00 92 1016.2
20260906144926 31 263 1.6 8.0 0.00 0.00 0.00 92 1016.1
20260906144421 30 145 0.0 4.8 0.00 0.00 0.00 94 1015.9
20260906143916 30 22 0.0 6.4 0.00 0.00 0.00 96 1015.9
20260906143412 30 264 0.0 4.8 0.00 0.00 0.00 94 1016.0
20260906142908 30 251 8.0 8.0 0.00 0.00 0.00 95 1016.0
20260906142408 29 16 3.2 4.8 0.00 0.00 0.00 97 1015.9
20260906141902 30 15 3.2 4.8 0.00 0.00 0.00 96 1016.1
20260906141402 29 218 3.2 4.8 0.00 0.00 0.00 97 1015.9
20260906140856 29 243 4.8 9.7 0.00 0.00 0.00 97 1015.9
20260906140351 28 279 3.2 4.8 0.00 0.00 0.00 99 1015.9
20260906135849 28 323 3.2 6.4 0.00 0.00 0.00 99 1016.0
20260906135343 28 339 3.2 4.8 0.00 0.00 0.00 99 1016.0
20260906134838 27 270 4.8 4.8 0.00 0.00 0.00 99 1016.0
20260906134333 27 276 3.2 6.4 0.00 0.00 0.00 99 1015.9
20260906133829 27 309 4.8 8.0 0.00 0.00 0.00 99 1016.0
20260906133324 26 278 3.2 8.0 0.00 0.00 0.00 99 1016.0
20260906132820 26 270 1.6 8.0 0.00 0.00 0.00 99 1016.0
20260906132315 26 294 1.6 3.2 0.00 0.00 0.00 99 1016.1
20260906131810 26 254 6.4 9.7 0.00 0.00 0.00 99 1016.2
20260906131305 26 300 0.0 6.4 0.00 0.00 0.00 99 1016.0
20260906130801 26 240 0.0 3.2 0.00 0.00 0.00 99 1015.9
20260906130256 25 243 0.0 6.4 0.00 0.00 0.00 99 1016.1
20260906125754 25 340 0.0 3.2 0.00 0.00 0.00 99 1016.2
20260906125252 25 325 0.0 0.0 0.00 0.00 0.00 99 1016.0
20260906124747 25 194 0.0 0.0 0.00 0.00 0.00 99 1015.9
20260906124243 24 246 0.0 3.2 0.00 0.00 0.00 99 1015.7
20260906123741 24 185 0.0 3.2 0.00 0.00 0.00 99 1015.7
20260906123237 24 209 0.0 1.6 0.00 0.00 0.00 99 1015.6
20260906122731 24 286 0.0 1.6 0.00 0.00 0.00 99 1015.5
20260906122226 24 237 0.0 3.2 0.00 0.00 0.00 99 1015.7
20260906121723 24 246 0.0 3.2 0.00 0.00 0.00 99 1015.7
20260906121219 24 254 0.0 1.6 0.00 0.00 0.00 99 1015.6
20260906120714 24 15 0.0 0.0 0.00 0.00 0.00 99 1015.7
20260906120211 23 15 0.0 0.0 0.00 0.00 0.00 99 1015.7
20260906115707 23 15 0.0 0.0 0.00 0.00 0.00 99 1015.8
20260906115201 23 0 0.0 1.6 0.00 0.00 0.00 99 1015.7
20260906114700 23 180 0.0 0.0 0.00 0.00 0.00 99 1015.7
20260906114155 23 180 0.0 0.0 0.00 0.00 0.00 99 1015.6
20260906113650 23 180 0.0 0.0 0.00 0.00 0.00 99 1015.7
20260906113150 23 180 0.0 0.0 0.00 0.00 0.00 99 1015.4
20260906112649 23 14 0.0 1.6 0.00 0.00 0.00 99 1015.4
20260906112146 23 180 0.0 1.6 0.00 0.00 0.00 99 1015.2
20260906111645 23 180 0.0 3.2 0.00 0.00 0.00 99 1015.2
20260906111140 23 195 0.0 1.6 0.00 0.00 0.00 99 1015.3
20260906110635 23 180 0.0 0.0 0.00 0.00 0.00 99 1015.2
20260906110130 23 180 0.0 0.0 0.00 0.00 0.00 99 1015.2
20260906105624 23 180 0.0 0.0 0.00 0.00 0.00 99 1015.2
20260906105121 23 180 0.0 1.6 0.00 0.00 0.00 99 1015.1
20260906104620 23 212 0.0 0.0 0.00 0.00 0.00 99 1015.2
20260906104114 23 23 0.0 0.0 0.00 0.00 0.00 99 1014.9
20260906103612 23 23 0.0 0.0 0.00 0.00 0.00 99 1015.0
20260906103108 23 23 0.0 0.0 0.00 0.00 0.00 99 1014.8
20260906102607 23 23 0.0 0.0 0.00 0.00 0.00 99 1014.8
20260906102057 23 23 0.0 1.6 0.00 0.00 0.00 99 1014.7
20260906101557 23 18 0.0 1.6 0.00 0.00 0.00 99 1014.6
20260906101051 23 345 0.0 0.0 0.00 0.00 0.00 99 1014.8
20260906100548 23 7 0.0 1.6 0.00 0.00 0.00 99 1014.8
20260906100048 23 18 0.0 1.6 0.00 0.00 0.00 99 1014.7
20260906095547 23 270 0.0 0.0 0.00 0.00 0.00 99 1014.8
20260906095043 23 270 0.0 0.0 0.00 0.00 0.00 99 1014.7
20260906094542 23 270 0.0 0.0 0.00 0.00 0.00 99 1014.6
20260906094038 23 270 0.0 0.0 0.00 0.00 0.00 99 1014.7
20260906093533 23 270 0.0 0.0 0.00 0.00 0.00 99 1014.5
20260906093028 23 270 0.0 1.6 0.00 0.00 0.00 99 1014.6
20260906092523 23 0 0.0 0.0 0.00 0.00 0.00 99 1014.3
20260906092018 23 0 0.0 0.0 0.00 0.00 0.00 99 1014.5
20260906091514 23 185 0.0 0.0 0.00 0.00 0.00 99 1014.3
20260906091011 23 185 0.0 0.0 0.00 0.00 0.00 99 1014.5
20260906090510 23 180 0.0 1.6 0.00 0.00 0.00 99 1014.5
20260906090005 23 188 0.0 1.6 0.00 0.00 0.00 99 1014.3
20260906085504 23 180 0.0 0.0 0.00 0.00 0.00 99 1014.2
20260906085004 23 261 0.0 0.0 0.00 0.00 0.00 99 1014.4
20260906084458 23 249 0.0 1.6 0.00 0.00 0.00 99 1014.3
20260906083957 23 352 0.0 0.0 0.00 0.00 0.00 99 1014.3
20260906083453 23 352 0.0 0.0 0.00 0.00 0.00 99 1014.3
20260906082952 23 352 0.0 0.0 0.00 0.00 0.00 99 1014.3
20260906082448 23 352 0.0 0.0 0.00 0.00 0.00 99 1014.3
20260906081944 23 352 0.0 0.0 0.00 0.00 0.00 99 1014.3
20260906081444 23 352 0.0 0.0 0.00 0.00 0.00 99 1014.4
20260906080940 23 353 0.0 1.6 0.00 0.00 0.00 99 1014.3
20260906080436 23 15 0.0 1.6 0.00 0.00 0.00 99 1014.1
20260906075931 23 0 0.0 0.0 0.00 0.00 0.00 99 1014.3
20260906075426 23 0 0.0 1.6 0.00 0.00 0.00 99 1014.1
20260906074920 23 11 0.0 0.0 0.00 0.00 0.00 99 1014.0
20260906074415 23 11 3.2 3.2 0.00 0.00 0.00 99 1014.2
20260906073914 23 23 0.0 1.6 0.00 0.00 0.00 99 1014.0
20260906073409 23 262 0.0 0.0 0.00 0.00 0.00 99 1014.3
20260906072905 23 262 0.0 0.0 0.00 0.00 0.00 99 1014.1
20260906072400 23 215 0.0 0.0 0.00 0.00 0.00 99 1014.2
20260906071856 23 187 0.0 3.2 0.00 0.00 0.00 99 1014.2
20260906071352 23 15 0.0 0.0 0.00 0.00 0.00 99 1014.2
20260906070847 23 74 0.0 1.6 0.00 0.00 0.00 99 1014.3
20260906070343 23 187 0.0 0.0 0.00 0.00 0.00 99 1014.3
20260906065838 23 187 0.0 0.0 0.00 0.00 0.00 99 1014.2
20260906065333 23 187 0.0 0.0 0.00 0.00 0.00 99 1014.3
20260906064828 23 188 0.0 0.0 0.00 0.00 0.00 99 1014.3
20260906064324 23 180 0.0 0.0 0.00 0.00 0.00 99 1014.2
20260906063819 23 352 0.0 0.0 0.00 0.00 0.00 99 1014.3
20260906063314 23 157 0.0 0.0 0.00 0.00 0.00 99 1014.3
20260906062809 23 162 0.0 3.2 0.00 0.00 0.00 99 1014.4
20260906062308 23 140 3.2 3.2 0.00 0.00 0.00 99 1014.4
20260906061804 23 187 1.6 3.2 0.00 0.00 0.00 99 1014.4
20260906061301 23 90 0.0 0.0 0.00 0.00 0.00 99 1014.5
20260906060755 23 90 0.0 0.0 0.00 0.00 0.00 99 1014.6
20260906060253 23 103 0.0 1.6 0.00 0.00 0.00 99 1014.5
20260906055748 23 99 0.0 1.6 0.00 0.00 0.00 99 1014.6
20260906055243 23 123 0.0 3.2 0.00 0.00 0.00 99 1014.9
20260906054739 24 154 1.6 3.2 0.00 0.00 0.00 99 1014.8
20260906054234 23 140 0.0 3.2 0.00 0.00 0.00 99 1015.0
20260906053730 23 14 0.0 1.6 0.00 0.00 0.00 99 1014.8
20260906053226 23 18 1.6 3.2 0.00 0.00 0.00 99 1015.0
20260906052721 23 157 0.0 1.6 0.00 0.00 0.00 99 1014.8
20260906052217 23 165 0.0 1.6 0.00 0.00 0.00 99 1014.9
20260906051714 23 180 0.0 0.0 0.00 0.00 0.00 99 1014.9
20260906051213 23 180 0.0 1.6 0.00 0.00 0.00 99 1014.8
20260906050709 23 40 0.0 0.0 0.00 0.00 0.00 99 1015.0
20260906050204 23 40 0.0 0.0 0.00 0.00 0.00 99 1015.0
20260906045702 24 52 3.2 4.8 0.00 0.03 0.03 99 1014.8
20260906045157 24 165 0.0 1.6 0.00 0.03 0.03 99 1014.7
20260906044653 24 334 0.0 0.0 0.00 0.03 0.03 99 1014.9
20260906044148 24 279 0.0 3.2 0.00 0.03 0.03 99 1015.1
20260906043644 24 254 0.0 3.2 0.00 0.03 0.03 99 1014.8
20260906043140 24 212 0.0 4.8 0.00 0.03 0.03 99 1015.1
20260906042639 24 189 3.2 4.8 0.00 0.03 0.03 99 1015.0
20260906042133 24 194 4.8 4.8 0.00 0.03 0.03 99 1015.0
20260906041629 24 180 0.0 3.2 0.00 0.03 0.03 99 1015.2
20260906041124 23 225 0.0 3.2 0.00 0.03 0.03 99 1015.2
20260906040620 23 173 0.0 1.6 0.00 0.03 0.03 99 1015.3
20260906040115 23 209 1.6 3.2 0.00 0.03 0.03 99 1015.5
20260906035610 23 187 1.6 1.6 0.00 0.03 0.03 99 1015.6
20260906035106 23 99 0.0 0.0 0.00 0.03 0.03 99 1015.5
20260906034606 23 69 0.0 1.6 0.00 0.03 0.03 99 1015.5
20260906034100 23 180 0.0 0.0 0.00 0.03 0.03 99 1015.6
20260906033556 23 180 0.0 0.0 0.00 0.03 0.03 99 1015.5
20260906033051 23 180 0.0 0.0 0.00 0.03 0.03 99 1015.7
20260906032548 23 180 0.0 0.0 0.00 0.03 0.03 99 1015.6
20260906032042 23 74 1.6 3.2 0.00 0.03 0.03 99 1015.5
20260906031538 24 90 0.0 0.0 0.00 0.03 0.03 99 1015.5
20260906031033 24 90 0.0 3.2 0.00 0.03 0.03 99 1015.6
20260906030532 23 165 0.0 1.6 0.00 0.03 0.03 99 1015.5
20260906030032 24 165 0.0 0.0 0.00 0.03 0.03 99 1015.7
20260906025531 24 180 0.0 1.6 0.00 0.03 0.03 99 1015.4
20260906025025 24 90 0.0 0.0 0.00 0.03 0.03 99 1015.5
20260906024520 24 90 0.0 0.0 0.00 0.03 0.03 99 1015.5
20260906024019 24 166 0.0 0.0 0.00 0.03 0.03 99 1015.6
20260906023516 24 166 0.0 1.6 0.00 0.03 0.03 99 1015.5
20260906023011 24 173 0.0 1.6 0.00 0.03 0.03 99 1015.4
20260906022506 24 106 1.6 1.6 0.00 0.03 0.03 99 1015.5
20260906022001 24 180 0.0 1.6 0.00 0.03 0.03 99 1015.2
20260906021456 24 180 0.0 3.2 0.00 0.03 0.03 99 1015.2
20260906020951 24 157 0.0 3.2 0.00 0.03 0.03 99 1015.4
20260906020444 25 29 0.0 1.6 0.00 0.03 0.03 99 1015.2
20260906015938 25 345 0.0 3.2 0.00 0.03 0.03 99 1015.2
20260906015433 25 127 3.2 3.2 0.00 0.03 0.03 99 1014.9
20260906014933 25 127 3.2 3.2 0.00 0.03 0.03 99 1015.1
20260906014432 25 160 0.0 0.0 0.00 0.03 0.03 99 1014.9
20260906013929 25 160 0.0 0.0 0.00 0.03 0.03 99 1014.7
20260906013424 25 160 0.0 1.6 0.00 0.03 0.03 99 1014.7
20260906012920 25 132 3.2 3.2 0.00 0.03 0.03 99 1014.6
20260906012420 25 90 1.6 1.6 0.00 0.03 0.03 99 1014.5
20260906011919 25 126 0.0 0.0 0.00 0.03 0.03 99 1014.5
20260906011414 25 157 1.6 1.6 0.00 0.03 0.03 99 1014.4
20260906010909 25 180 0.0 0.0 0.00 0.03 0.03 99 1014.3
20260906010405 25 173 0.0 0.0 0.00 0.03 0.03 99 1014.1
20260906005901 25 173 0.0 0.0 0.00 0.03 0.03 99 1014.2
20260906005400 25 20 0.0 0.0 0.00 0.03 0.03 99 1014.2
20260906004859 25 20 0.0 1.6 0.00 0.03 0.03 99 1014.2
20260906004353 26 111 1.6 1.6 0.00 0.03 0.03 99 1014.0
20260906003849 26 180 0.0 3.2 0.00 0.03 0.03 99 1014.2
20260906003344 26 200 1.6 3.2 0.00 0.03 0.03 99 1014.3
20260906002840 26 209 0.0 4.8 0.00 0.03 0.03 99 1014.0
20260906002339 26 209 4.8 4.8 0.00 0.03 0.03 99 1014.1
20260906001835 26 206 1.6 4.8 0.00 0.03 0.03 99 1014.3
20260906001330 26 225 0.0 3.2 0.00 0.03 0.03 99 1014.1
20260906000825 26 216 3.2 3.2 0.00 0.03 0.03 99 1014.4
20260906000320 26 225 3.2 6.4 0.00 0.03 0.03 99 1014.1
20260905235819 27 201 3.2 4.8 0.00 0.03 0.03 99 1014.3
20260905235314 27 214 3.2 4.8 0.00 0.03 0.03 99 1014.3
20260905234810 27 183 4.8 4.8 0.00 0.03 0.03 99 1014.4
20260905234305 27 220 3.2 3.2 0.00 0.03 0.03 99 1014.3
20260905233759 27 240 0.0 4.8 0.00 0.03 0.03 99 1014.5
20260905233254 27 234 0.0 1.6 0.00 0.03 0.03 99 1014.5
20260905232753 27 203 1.6 1.6 0.00 0.03 0.03 99 1014.4
20260905232249 27 234 1.6 3.2 0.00 0.03 0.03 99 1014.7
20260905231745 28 180 0.0 1.6 0.00 0.03 0.03 99 1014.4
20260905231240 28 166 0.0 0.0 0.00 0.03 0.03 99 1014.7
20260905230737 27 166 0.0 3.2 0.00 0.03 0.03 99 1014.7
20260905230234 28 192 1.6 3.2 0.00 0.03 0.03 99 1014.8
20260905225734 28 192 0.0 3.2 0.00 0.03 0.03 98 1014.8
20260905225229 28 195 1.6 3.2 0.05 0.03 0.03 99 1014.6
20260905224728 28 197 0.0 3.2 0.05 0.03 0.03 99 1014.4
20260905224224 28 180 0.0 4.8 0.00 0.00 0.00 99 1014.6
20260905223720 28 187 4.8 4.8 0.00 0.00 0.00 99 1014.5
20260905223217 28 200 4.8 6.4 0.00 0.00 0.00 99 1014.6
20260905222712 28 202 0.0 4.8 0.00 0.00 0.00 99 1014.4
20260905222211 28 233 3.2 3.2 0.00 0.00 0.00 99 1014.6
20260905221707 27 166 0.0 1.6 0.00 0.00 0.00 99 1014.6
20260905221204 27 203 0.0 1.6 0.00 0.00 0.00 99 1014.5
20260905220659 27 81 0.0 0.0 0.00 0.00 0.00 99 1014.7
20260905220155 27 90 0.0 3.2 0.00 0.00 0.00 99 1014.8
20260905215654 27 101 3.2 4.8 0.00 0.00 0.00 99 1014.7
20260905215150 27 127 3.2 3.2 0.00 0.00 0.00 99 1014.9
20260905214646 27 188 0.0 1.6 0.00 0.00 0.00 99 1015.0
20260905214141 27 145 0.0 3.2 0.00 0.00 0.00 99 1014.9
20260905213636 27 115 0.0 3.2 0.00 0.00 0.00 99 1014.8
20260905213131 27 175 3.2 3.2 0.00 0.00 0.00 99 1015.1
20260905212627 27 53 3.2 4.8 0.00 0.00 0.00 99 1015.2
20260905212126 27 90 4.8 4.8 0.00 0.00 0.00 99 1015.2
20260905211621 27 131 3.2 4.8 0.00 0.00 0.00 99 1014.8
20260905211117 27 90 0.0 4.8 0.00 0.00 0.00 99 1014.6
20260905210613 27 36 3.2 4.8 0.00 0.00 0.00 99 1014.7
20260905210108 27 90 0.0 6.4 0.00 0.00 0.00 99 1014.8
20260905205607 26 85 3.2 4.8 0.00 0.00 0.00 99 1014.9
20260905205107 26 120 0.0 1.6 0.00 0.00 0.00 99 1014.8
20260905204606 26 36 4.8 9.7 0.00 0.00 0.00 99 1014.4
20260905204102 26 21 4.8 6.4 0.00 0.00 0.00 99 1014.5
20260905203556 26 17 0.0 4.8 0.00 0.00 0.00 99 1015.0
20260905203051 26 45 3.2 9.7 0.00 0.00 0.00 99 1015.2
20260905202546 26 8 0.0 9.7 0.00 0.00 0.00 99 1014.9
20260905202042 26 343 3.2 9.7 0.00 0.00 0.00 99 1015.1
20260905201538 26 345 3.2 4.8 0.00 0.00 0.00 99 1015.1
20260905201037 25 58 4.8 11.3 0.00 0.00 0.00 99 1015.4
20260905200532 25 41 3.2 9.7 0.00 0.00 0.00 99 1015.5
20260905200032 25 18 6.4 11.3 0.00 0.00 0.00 99 1015.3
20260905195526 25 7 8.0 12.9 0.00 0.00 0.00 99 1015.4
20260905195022 25 359 8.0 9.7 0.00 0.00 0.00 99 1015.5
20260905194521 24 36 8.0 16.1 0.00 0.00 0.00 99 1015.7
20260905194015 25 13 9.7 16.1 0.00 0.00 0.00 99 1015.9
20260905193510 25 49 16.1 22.5 0.05 0.00 0.00 99 1016.0
20260905193006 27 25 14.5 25.7 0.05 0.00 0.00 99 1016.0
20260905192501 31 22 9.7 12.9 0.00 0.00 0.00 88 1015.7
20260905191957 32 344 3.2 3.2 0.00 0.00 0.00 86 1015.7
20260905191455 32 14 3.2 4.8 0.00 0.00 0.00 86 1015.6
20260905190954 32 114 3.2 6.4 0.00 0.00 0.00 88 1015.7
20260905190453 31 183 3.2 4.8 0.00 0.00 0.00 88 1015.9
20260905185951 31 174 4.8 9.7 0.00 0.00 0.00 88 1015.8
20260905185447 31 124 4.8 6.4 0.00 0.00 0.00 88 1015.8
20260905184945 31 149 6.4 6.4 0.00 0.00 0.00 88 1015.9
20260905184440 31 14 4.8 8.0 0.00 0.00 0.00 89 1015.8
20260905183939 31 78 4.8 8.0 0.00 0.00 0.00 88 1016.0
20260905183433 31 85 6.4 14.5 0.00 0.00 0.00 89 1016.0
20260905182929 31 61 6.4 11.3 0.00 0.00 0.00 89 1015.8
20260905182427 30 28 8.0 8.0 0.00 0.00 0.00 90 1016.1
20260905181924 31 103 0.0 6.4 0.00 0.00 0.00 88 1016.1
20260905181418 31 35 8.0 11.3 0.00 0.00 0.00 87 1016.2
20260905180917 31 31 6.4 6.4 0.00 0.00 0.00 86 1016.1
20260905180412 32 264 3.2 3.2 0.00 0.00 0.00 83 1016.4
20260905175907 32 180 1.6 9.7 0.00 0.00 0.00 82 1016.4
20260905175406 32 127 3.2 3.2 0.00 0.00 0.00 84 1016.5
20260905174901 31 243 4.8 6.4 0.00 0.00 0.00 84 1016.6
20260905174357 31 257 3.2 11.3 0.00 0.00 0.00 87 1016.5
20260905173853 32 320 3.2 6.4 0.00 0.00 0.00 85 1016.5
20260905173349 32 9 6.4 6.4 0.00 0.00 0.00 84 1016.7
20260905172843 33 172 6.4 6.4 0.00 0.00 0.00 84 1016.7
20260905172341 32 161 0.0 8.0 0.00 0.00 0.00 87 1016.8
20260905171838 31 228 3.2 4.8 0.00 0.00 0.00 88 1016.8
20260905171334 31 325 1.6 6.4 0.00 0.00 0.00 87 1016.9
20260905170830 30 212 0.0 6.4 0.00 0.00 0.00 91 1017.0
20260905170326 29 328 3.2 3.2 0.00 0.00 0.00 94 1017.2
20260905165825 29 342 0.0 6.4 0.00 0.00 0.00 94 1017.4
20260905165321 30 336 3.2 8.0 0.00 0.00 0.00 93 1017.3
20260905164820 30 277 8.0 9.7 0.00 0.00 0.00 91 1017.5
20260905164315 30 254 6.4 8.0 0.00 0.00 0.00 91 1017.4
20260905163811 31 195 3.2 3.2 0.00 0.00 0.00 90 1017.3
20260905163307 31 325 0.0 3.2 0.00 0.00 0.00 92 1017.4
20260905162803 30 176 6.4 9.7 0.00 0.00 0.00 92 1017.4
20260905162257 30 197 3.2 3.2 0.00 0.00 0.00 94 1017.6
20260905161752 29 215 0.0 4.8 0.00 0.00 0.00 96 1017.6
20260905161250 28 239 3.2 6.4 0.00 0.00 0.00 97 1017.6
20260905160749 28 216 4.8 4.8 0.00 0.00 0.00 97 1017.5
20260905160243 29 252 4.8 6.4 0.00 0.00 0.00 97 1017.7
20260905155738 29 334 1.6 4.8 0.00 0.00 0.00 97 1017.6
20260905155237 29 332 4.8 4.8 0.00 0.00 0.00 96 1017.7
20260905154731 29 3 4.8 4.8 0.00 0.00 0.00 95 1017.4
20260905154228 29 286 1.6 3.2 0.00 0.00 0.00 95 1017.7
20260905153723 29 340 0.0 3.2 0.00 0.00 0.00 98 1017.5
20260905153219 28 350 4.8 8.0 0.00 0.00 0.00 98 1017.8
20260905152713 28 253 0.0 0.0 0.00 0.00 0.00 97 1017.7
20260905152208 29 255 6.4 6.4 0.00 0.00 0.00 98 1017.7
20260905151707 28 195 3.2 6.4 0.00 0.00 0.00 99 1017.6
20260905151203 28 237 3.2 4.8 0.00 0.00 0.00 99 1017.7